| time (UTC) | temp C | wind direction | speed KPH | gust KPH | rain 1hr cm | rain 24hr cm | rain mn cm | humidity % | barometer mb |
| 20260508172424 | 16 | 45 | 0.0 | 1.6 | 0.00 | 0.00 | 0.00 | 81 | 946.0 |
| 20260508171928 | 16 | 45 | 0.0 | 1.6 | 0.00 | 0.00 | 0.00 | 81 | 946.0 |
| 20260508170427 | 16 | 45 | 0.0 | 0.0 | 0.00 | 0.00 | 0.00 | 81 | 946.0 |
| 20260508165433 | 16 | 45 | 0.0 | 0.0 | 0.00 | 0.00 | 0.00 | 80 | 946.0 |
| 20260508164934 | 16 | 45 | 0.0 | 0.0 | 0.00 | 0.00 | 0.00 | 80 | 946.0 |
| 20260508163926 | 17 | 45 | 0.0 | 0.0 | 0.00 | 0.00 | 0.00 | 80 | 946.0 |
| 20260508163438 | 17 | 45 | 0.0 | 0.0 | 0.00 | 0.00 | 0.00 | 80 | 946.0 |
| 20260508161926 | 17 | 45 | 0.0 | 0.0 | 0.00 | 0.00 | 0.00 | 80 | 945.0 |
| 20260508160926 | 17 | 45 | 0.0 | 0.0 | 0.00 | 0.00 | 0.00 | 80 | 945.0 |
| 20260508160427 | 17 | 45 | 0.0 | 0.0 | 0.00 | 0.00 | 0.00 | 80 | 945.0 |
| 20260508155926 | 17 | 45 | 0.0 | 0.0 | 0.00 | 0.00 | 0.00 | 79 | 945.0 |
| 20260508155425 | 17 | 45 | 0.0 | 0.0 | 0.00 | 0.00 | 0.00 | 79 | 945.0 |
| 20260508154927 | 17 | 45 | 0.0 | 0.0 | 0.00 | 0.00 | 0.00 | 79 | 945.0 |
| 20260508154426 | 17 | 45 | 0.0 | 0.0 | 0.00 | 0.00 | 0.00 | 79 | 945.0 |
| 20260508153930 | 17 | 45 | 0.0 | 0.0 | 0.00 | 0.00 | 0.00 | 79 | 945.0 |
| 20260508152928 | 17 | 45 | 0.0 | 0.0 | 0.00 | 0.00 | 0.00 | 79 | 945.0 |
| 20260508152427 | 17 | 45 | 0.0 | 0.0 | 0.00 | 0.00 | 0.00 | 78 | 945.0 |
| 20260508151926 | 17 | 45 | 0.0 | 0.0 | 0.00 | 0.00 | 0.00 | 77 | 945.0 |
| 20260508150934 | 17 | 45 | 0.0 | 0.0 | 0.00 | 0.00 | 0.00 | 76 | 945.0 |
| 20260508150426 | 17 | 45 | 0.0 | 6.4 | 0.00 | 0.00 | 0.00 | 75 | 945.0 |
| 20260508145427 | 17 | 45 | 6.4 | 6.4 | 0.00 | 0.00 | 0.00 | 72 | 945.0 |
| 20260508144940 | 18 | 45 | 6.4 | 6.4 | 0.00 | 0.00 | 0.00 | 71 | 946.0 |
| 20260508143428 | 18 | 45 | 0.0 | 4.8 | 0.00 | 0.00 | 0.00 | 70 | 945.0 |
| 20260508142943 | 18 | 45 | 0.0 | 4.8 | 0.00 | 0.00 | 0.00 | 69 | 945.0 |
| 20260508142428 | 19 | 45 | 0.0 | 6.4 | 0.00 | 0.00 | 0.00 | 68 | 945.0 |
| 20260508141429 | 20 | 45 | 6.4 | 6.4 | 0.00 | 0.00 | 0.00 | 67 | 945.0 |
| 20260508140428 | 20 | 45 | 6.4 | 8.0 | 0.00 | 0.00 | 0.00 | 65 | 945.0 |
| 20260508135928 | 20 | 45 | 0.0 | 8.0 | 0.00 | 0.00 | 0.00 | 65 | 945.0 |
| 20260508135428 | 20 | 45 | 4.8 | 6.4 | 0.00 | 0.00 | 0.00 | 66 | 945.0 |
| 20260508133929 | 20 | 45 | 4.8 | 6.4 | 0.00 | 0.00 | 0.00 | 65 | 945.0 |
| 20260508133430 | 21 | 45 | 0.0 | 8.0 | 0.00 | 0.00 | 0.00 | 64 | 945.0 |
| 20260508132929 | 21 | 45 | 4.8 | 11.3 | 0.00 | 0.00 | 0.00 | 63 | 945.0 |
| 20260508132438 | 21 | 45 | 8.0 | 11.3 | 0.00 | 0.00 | 0.00 | 63 | 945.0 |
| 20260508130945 | 22 | 45 | 0.0 | 6.4 | 0.00 | 0.00 | 0.00 | 60 | 945.0 |
| 20260508130445 | 23 | 45 | 0.0 | 6.4 | 0.00 | 0.00 | 0.00 | 59 | 945.0 |
| 20260508125929 | 23 | 45 | 6.4 | 6.4 | 0.00 | 0.00 | 0.00 | 60 | 945.0 |
| 20260508125430 | 23 | 45 | 0.0 | 9.7 | 0.00 | 0.00 | 0.00 | 61 | 945.0 |
| 20260508122932 | 21 | 45 | 0.0 | 3.2 | 0.00 | 0.00 | 0.00 | 68 | 945.0 |
| 20260508122431 | 21 | 45 | 0.0 | 3.2 | 0.00 | 0.00 | 0.00 | 68 | 945.0 |
| 20260508121431 | 20 | 45 | 1.6 | 6.4 | 0.00 | 0.00 | 0.00 | 70 | 945.0 |
| 20260508120930 | 20 | 45 | 0.0 | 9.7 | 0.00 | 0.00 | 0.00 | 69 | 945.0 |
| 20260508120441 | 19 | 45 | 4.8 | 9.7 | 0.00 | 0.00 | 0.00 | 69 | 945.0 |
| 20260508114448 | 21 | 45 | 9.7 | 12.9 | 0.00 | 0.00 | 0.00 | 61 | 945.0 |
| 20260508113930 | 22 | 45 | 3.2 | 12.9 | 0.00 | 0.00 | 0.00 | 58 | 945.0 |
| 20260508113429 | 23 | 0 | 0.0 | 12.9 | 0.00 | 0.00 | 0.00 | 57 | 945.0 |
| 20260508112429 | 23 | 45 | 8.0 | 11.3 | 0.00 | 0.00 | 0.00 | 57 | 945.0 |
| 20260508111930 | 23 | 45 | 6.4 | 8.0 | 0.00 | 0.00 | 0.00 | 58 | 945.0 |
| 20260508111454 | 22 | 45 | 0.0 | 8.0 | 0.00 | 0.00 | 0.00 | 58 | 945.0 |
| 20260508110431 | 22 | 45 | 3.2 | 6.4 | 0.00 | 0.00 | 0.00 | 61 | 945.0 |
| 20260508105433 | 21 | 45 | 4.8 | 8.0 | 0.00 | 0.00 | 0.00 | 61 | 944.0 |
| 20260508104430 | 21 | 45 | 4.8 | 11.3 | 0.00 | 0.00 | 0.00 | 61 | 945.0 |
| 20260508103939 | 21 | 22 | 0.0 | 11.3 | 0.00 | 0.00 | 0.00 | 61 | 945.0 |
| 20260508103429 | 21 | 45 | 11.3 | 11.3 | 0.00 | 0.00 | 0.00 | 60 | 945.0 |
| 20260508101946 | 22 | 315 | 0.0 | 6.4 | 0.00 | 0.00 | 0.00 | 60 | 945.0 |
| 20260508100933 | 22 | 90 | 0.0 | 0.0 | 0.00 | 0.00 | 0.00 | 64 | 944.0 |
| 20260508100433 | 22 | 90 | 0.0 | 0.0 | 0.00 | 0.00 | 0.00 | 63 | 944.0 |
| 20260508095930 | 22 | 90 | 0.0 | 0.0 | 0.00 | 0.00 | 0.00 | 64 | 944.0 |
| 20260508093435 | 22 | 90 | 0.0 | 0.0 | 0.00 | 0.00 | 0.00 | 63 | 945.0 |
| 20260508092433 | 22 | 90 | 0.0 | 0.0 | 0.00 | 0.00 | 0.00 | 64 | 944.0 |
| 20260508091930 | 22 | 90 | 0.0 | 0.0 | 0.00 | 0.00 | 0.00 | 64 | 945.0 |
| 20260508091442 | 22 | 90 | 0.0 | 0.0 | 0.00 | 0.00 | 0.00 | 64 | 945.0 |
| 20260508090929 | 22 | 90 | 0.0 | 0.0 | 0.00 | 0.00 | 0.00 | 65 | 945.0 |
| 20260508090429 | 22 | 90 | 0.0 | 1.6 | 0.00 | 0.00 | 0.00 | 65 | 945.0 |
| 20260508084433 | 22 | 90 | 0.0 | 0.0 | 0.00 | 0.00 | 0.00 | 66 | 945.0 |
| 20260508083929 | 22 | 90 | 0.0 | 0.0 | 0.00 | 0.00 | 0.00 | 67 | 945.0 |
| 20260508083429 | 22 | 90 | 0.0 | 3.2 | 0.00 | 0.00 | 0.00 | 67 | 945.0 |
| 20260508082429 | 22 | 90 | 3.2 | 3.2 | 0.00 | 0.00 | 0.00 | 68 | 945.0 |
| 20260508080939 | 21 | 90 | 0.0 | 0.0 | 0.00 | 0.00 | 0.00 | 69 | 944.0 |
| 20260508080429 | 21 | 90 | 0.0 | 0.0 | 0.00 | 0.00 | 0.00 | 69 | 944.0 |
| 20260508075929 | 21 | 90 | 0.0 | 0.0 | 0.00 | 0.00 | 0.00 | 70 | 944.0 |
| 20260508073933 | 21 | 90 | 0.0 | 1.6 | 0.00 | 0.00 | 0.00 | 71 | 944.0 |
| 20260508072428 | 21 | 90 | 0.0 | 0.0 | 0.00 | 0.00 | 0.00 | 73 | 944.0 |
| 20260508071931 | 21 | 90 | 0.0 | 0.0 | 0.00 | 0.00 | 0.00 | 73 | 944.0 |
| 20260508071430 | 21 | 90 | 0.0 | 0.0 | 0.00 | 0.00 | 0.00 | 74 | 944.0 |
| 20260508070934 | 21 | 90 | 0.0 | 0.0 | 0.00 | 0.00 | 0.00 | 75 | 944.0 |
| 20260508065930 | 20 | 90 | 0.0 | 0.0 | 0.00 | 0.00 | 0.00 | 77 | 944.0 |
| 20260508064938 | 19 | 90 | 0.0 | 0.0 | 0.00 | 0.00 | 0.00 | 78 | 944.0 |
| 20260508063930 | 18 | 90 | 0.0 | 0.0 | 0.00 | 0.00 | 0.00 | 80 | 944.0 |
| 20260508062944 | 17 | 90 | 0.0 | 0.0 | 0.00 | 0.00 | 0.00 | 80 | 944.0 |
| 20260508062431 | 17 | 90 | 0.0 | 0.0 | 0.00 | 0.00 | 0.00 | 80 | 944.0 |
| 20260508061931 | 17 | 90 | 0.0 | 0.0 | 0.00 | 0.00 | 0.00 | 80 | 944.0 |
| 20260508060951 | 16 | 90 | 0.0 | 0.0 | 0.00 | 0.00 | 0.00 | 81 | 944.0 |
| 20260508055928 | 16 | 90 | 0.0 | 0.0 | 0.00 | 0.00 | 0.00 | 81 | 944.0 |
| 20260508055429 | 16 | 90 | 0.0 | 0.0 | 0.00 | 0.00 | 0.00 | 81 | 944.0 |
| 20260508054929 | 16 | 90 | 0.0 | 0.0 | 0.00 | 0.00 | 0.00 | 81 | 944.0 |
| 20260508054430 | 16 | 90 | 0.0 | 0.0 | 0.00 | 0.00 | 0.00 | 81 | 944.0 |
| 20260508053930 | 15 | 90 | 0.0 | 0.0 | 0.00 | 0.00 | 0.00 | 80 | 944.0 |
| 20260508053434 | 15 | 90 | 0.0 | 0.0 | 0.00 | 0.00 | 0.00 | 80 | 944.0 |
| 20260508052932 | 15 | 90 | 0.0 | 0.0 | 0.00 | 0.00 | 0.00 | 80 | 944.0 |
| 20260508052437 | 15 | 90 | 0.0 | 0.0 | 0.00 | 0.00 | 0.00 | 80 | 944.0 |
| 20260508051935 | 15 | 90 | 0.0 | 0.0 | 0.00 | 0.00 | 0.00 | 81 | 944.0 |
| 20260508050928 | 15 | 90 | 0.0 | 0.0 | 0.00 | 0.00 | 0.00 | 81 | 944.0 |
| 20260508050443 | 15 | 90 | 0.0 | 0.0 | 0.00 | 0.00 | 0.00 | 81 | 944.0 |
| 20260508045929 | 15 | 90 | 0.0 | 0.0 | 0.00 | 0.00 | 0.00 | 81 | 944.0 |
| 20260508045430 | 15 | 90 | 0.0 | 0.0 | 0.00 | 0.00 | 0.00 | 81 | 944.0 |
| 20260508044929 | 15 | 90 | 0.0 | 0.0 | 0.00 | 0.00 | 0.00 | 81 | 944.0 |
| 20260508043929 | 15 | 90 | 0.0 | 0.0 | 0.00 | 0.00 | 0.00 | 81 | 944.0 |
| 20260508041930 | 15 | 90 | 0.0 | 0.0 | 0.00 | 0.00 | 0.00 | 81 | 944.0 |
| 20260508040929 | 14 | 90 | 0.0 | 0.0 | 0.00 | 0.00 | 0.00 | 81 | 944.0 |
| 20260508035935 | 14 | 90 | 0.0 | 0.0 | 0.00 | 0.00 | 0.00 | 81 | 944.0 |
| 20260508034447 | 13 | 90 | 0.0 | 0.0 | 0.00 | 0.00 | 0.00 | 81 | 944.0 |
| 20260508033942 | 13 | 90 | 0.0 | 0.0 | 0.00 | 0.00 | 0.00 | 80 | 944.0 |
| 20260508032930 | 13 | 90 | 0.0 | 0.0 | 0.00 | 0.00 | 0.00 | 80 | 944.0 |
| 20260508032449 | 13 | 90 | 0.0 | 0.0 | 0.00 | 0.00 | 0.00 | 80 | 944.0 |
| 20260508031429 | 13 | 90 | 0.0 | 0.0 | 0.00 | 0.00 | 0.00 | 79 | 944.0 |
| 20260508030934 | 13 | 90 | 0.0 | 0.0 | 0.00 | 0.00 | 0.00 | 78 | 944.0 |
| 20260508030429 | 13 | 90 | 0.0 | 0.0 | 0.00 | 0.00 | 0.00 | 78 | 944.0 |
| 20260508025430 | 13 | 90 | 0.0 | 0.0 | 0.00 | 0.00 | 0.00 | 78 | 944.0 |
| 20260508024928 | 13 | 90 | 0.0 | 0.0 | 0.00 | 0.00 | 0.00 | 77 | 944.0 |
| 20260508024433 | 14 | 90 | 0.0 | 0.0 | 0.00 | 0.00 | 0.00 | 76 | 944.0 |
| 20260508023502 | 14 | 90 | 0.0 | 0.0 | 0.00 | 0.00 | 0.00 | 76 | 944.0 |
| 20260508022929 | 14 | 90 | 0.0 | 0.0 | 0.00 | 0.00 | 0.00 | 76 | 944.0 |
| 20260508022430 | 14 | 90 | 0.0 | 0.0 | 0.00 | 0.00 | 0.00 | 75 | 944.0 |
| 20260508021429 | 14 | 90 | 0.0 | 3.2 | 0.00 | 0.00 | 0.00 | 75 | 944.0 |
| 20260508020928 | 14 | 90 | 0.0 | 3.2 | 0.00 | 0.00 | 0.00 | 75 | 944.0 |
| 20260508020429 | 15 | 90 | 0.0 | 3.2 | 0.00 | 0.00 | 0.00 | 74 | 944.0 |
| 20260508014951 | 15 | 90 | 0.0 | 3.2 | 0.00 | 0.00 | 0.00 | 73 | 944.0 |
| 20260508014430 | 15 | 90 | 0.0 | 3.2 | 0.00 | 0.00 | 0.00 | 72 | 944.0 |
| 20260508013928 | 15 | 90 | 0.0 | 0.0 | 0.00 | 0.00 | 0.00 | 72 | 944.0 |
| 20260508012929 | 15 | 90 | 0.0 | 0.0 | 0.00 | 0.00 | 0.00 | 71 | 944.0 |
| 20260508011435 | 15 | 90 | 0.0 | 4.8 | 0.00 | 0.00 | 0.00 | 70 | 944.0 |
| 20260508010928 | 15 | 90 | 0.0 | 4.8 | 0.00 | 0.00 | 0.00 | 70 | 944.0 |
| 20260508010439 | 15 | 90 | 0.0 | 0.0 | 0.00 | 0.00 | 0.00 | 69 | 944.0 |
| 20260508004428 | 15 | 90 | 0.0 | 0.0 | 0.00 | 0.00 | 0.00 | 68 | 944.0 |
| 20260508003448 | 15 | 90 | 0.0 | 0.0 | 0.00 | 0.00 | 0.00 | 68 | 944.0 |
| 20260508002928 | 15 | 90 | 0.0 | 0.0 | 0.00 | 0.00 | 0.00 | 68 | 944.0 |
| 20260508002429 | 15 | 90 | 0.0 | 0.0 | 0.00 | 0.00 | 0.00 | 68 | 943.0 |
| 20260508001929 | 15 | 90 | 0.0 | 0.0 | 0.00 | 0.00 | 0.00 | 68 | 944.0 |
| 20260507234940 | 15 | 90 | 0.0 | 0.0 | 0.00 | 0.00 | 0.00 | 67 | 943.0 |
| 20260507234429 | 14 | 90 | 0.0 | 0.0 | 0.00 | 0.00 | 0.00 | 67 | 943.0 |
| 20260507233933 | 14 | 90 | 0.0 | 0.0 | 0.00 | 0.00 | 0.00 | 67 | 943.0 |
| 20260507233445 | 14 | 90 | 0.0 | 0.0 | 0.00 | 0.00 | 0.00 | 67 | 943.0 |
| 20260507232428 | 14 | 90 | 0.0 | 0.0 | 0.00 | 0.00 | 0.00 | 67 | 944.0 |
| 20260507231928 | 14 | 90 | 0.0 | 0.0 | 0.00 | 0.00 | 0.00 | 66 | 943.0 |
| 20260507230432 | 14 | 90 | 0.0 | 0.0 | 0.00 | 0.00 | 0.00 | 65 | 944.0 |
| 20260507225429 | 14 | 90 | 0.0 | 0.0 | 0.00 | 0.00 | 0.00 | 64 | 944.0 |
| 20260507224937 | 15 | 90 | 0.0 | 0.0 | 0.00 | 0.00 | 0.00 | 64 | 943.0 |
| 20260507224433 | 15 | 90 | 0.0 | 0.0 | 0.00 | 0.00 | 0.00 | 64 | 943.0 |
| 20260507223428 | 15 | 90 | 0.0 | 0.0 | 0.00 | 0.00 | 0.00 | 64 | 943.0 |
| 20260507222438 | 15 | 90 | 0.0 | 0.0 | 0.00 | 0.00 | 0.00 | 64 | 944.0 |
| 20260507221929 | 15 | 90 | 0.0 | 0.0 | 0.00 | 0.00 | 0.00 | 64 | 944.0 |
| 20260507221430 | 15 | 90 | 0.0 | 0.0 | 0.00 | 0.00 | 0.00 | 64 | 943.0 |
| 20260507220946 | 15 | 90 | 0.0 | 0.0 | 0.00 | 0.00 | 0.00 | 63 | 943.0 |
| 20260507220430 | 15 | 90 | 0.0 | 0.0 | 0.00 | 0.00 | 0.00 | 63 | 943.0 |
| 20260507214932 | 15 | 90 | 0.0 | 0.0 | 0.00 | 0.00 | 0.00 | 62 | 943.0 |
| 20260507213429 | 15 | 90 | 0.0 | 0.0 | 0.00 | 0.00 | 0.00 | 61 | 943.0 |
| 20260507211429 | 15 | 90 | 0.0 | 0.0 | 0.00 | 0.00 | 0.00 | 60 | 943.0 |
| 20260507210928 | 15 | 90 | 0.0 | 0.0 | 0.00 | 0.00 | 0.00 | 60 | 943.0 |
| 20260507205927 | 15 | 90 | 0.0 | 0.0 | 0.00 | 0.00 | 0.00 | 60 | 943.0 |
| 20260507205428 | 15 | 90 | 0.0 | 0.0 | 0.00 | 0.00 | 0.00 | 60 | 943.0 |
| 20260507204928 | 15 | 90 | 0.0 | 0.0 | 0.00 | 0.00 | 0.00 | 59 | 943.0 |
| 20260507204448 | 16 | 90 | 0.0 | 0.0 | 0.00 | 0.00 | 0.00 | 59 | 943.0 |
| 20260507202428 | 16 | 90 | 0.0 | 0.0 | 0.00 | 24.97 | 0.00 | 58 | 943.0 |
| 20260507201932 | 16 | 90 | 0.0 | 0.0 | 0.00 | 0.00 | 0.00 | 58 | 943.0 |
| 20260507194930 | 16 | 90 | 0.0 | 3.2 | 0.00 | 0.00 | 0.00 | 56 | 943.0 |
| 20260507193429 | 16 | 90 | 0.0 | 0.0 | 0.00 | 0.00 | 0.00 | 55 | 943.0 |
| 20260507192429 | 16 | 90 | 0.0 | 0.0 | 0.00 | 0.00 | 0.00 | 54 | 943.0 |
| 20260507191430 | 17 | 90 | 0.0 | 0.0 | 0.00 | 0.00 | 0.00 | 54 | 943.0 |
| 20260507190428 | 17 | 90 | 0.0 | 0.0 | 0.00 | 0.00 | 0.00 | 53 | 943.0 |
| 20260507185433 | 17 | 90 | 0.0 | 0.0 | 0.00 | 0.00 | 0.00 | 53 | 943.0 |
| 20260507183929 | 18 | 90 | 0.0 | 0.0 | 0.00 | 0.00 | 0.00 | 51 | 943.0 |
| 20260507182928 | 18 | 90 | 0.0 | 0.0 | 0.00 | 0.00 | 0.00 | 51 | 943.0 |
| 20260507182427 | 18 | 90 | 0.0 | 0.0 | 0.00 | 0.00 | 0.00 | 50 | 943.0 |
| 20260507181941 | 18 | 90 | 0.0 | 0.0 | 0.00 | 0.00 | 0.00 | 50 | 943.0 |
| 20260507180933 | 18 | 90 | 0.0 | 0.0 | 0.00 | 0.00 | 0.00 | 49 | 943.0 |
| 20260507180428 | 19 | 90 | 0.0 | 0.0 | 0.00 | 0.00 | 0.00 | 49 | 942.0 |
| 20260507175946 | 19 | 90 | 0.0 | 0.0 | 0.00 | 0.00 | 0.00 | 49 | 943.0 |
| 20260507175516 | 19 | 90 | 0.0 | 0.0 | 0.00 | 0.00 | 0.00 | 48 | 943.0 |
| 20260507174927 | 19 | 90 | 0.0 | 0.0 | 0.00 | 0.00 | 0.00 | 48 | 943.0 |
| 20260507174428 | 20 | 90 | 0.0 | 0.0 | 0.00 | 0.00 | 0.00 | 48 | 943.0 |